Location: Kawakawa
(35.3830°S, 174.0670°E)
Time: 10:12:44
(UTC+12:00)

Cosmos 1869 Rocket - Pass Details

Date: 24 January 2019
Orbit: 604 x 635 km, 82.5° (Epoch: 18 April)

Event Time Altitude Azimuth Distance (km) Brightness Sun altitude
Rises 22:29:56 0° 179° (S) 2,910 7.6 -19.9°
Reaches altitude 10° 22:32:18 10° 171° (S) 1,992 6.6 -20.2°
Maximum altitude 22:36:27 40° 100° (E) 914 4.1 -20.8°
Enters shadow 22:36:27 40° 100° (E) 914 4.1 -20.8°
